Temperature
11 11 11 11 11 11 11 11 12 12 12 12 12 12 12 12 12 12 12 12 12 12 12 12 12 12 12 12 12 12 12 12 12 12 12 12 12 11 11 11 11 11 11
11 11 11 11 11 11 11 11 11 11 11 11 11 11 11 11 11 12 12 12 12 12 12 12 12 12 12 12 12 12 12 12 11 11 11 11 11 11 11 11 11 10 10
10 10 10 10 10 10 10 11 11 11 11 11 11 11 11 11 11 11 11 11 11 11 11 11 11 11 11 11 11 11 12 11 11 11 11 11 11 11 11 10 10 10 10
10 10 10 10 10 10 10 10 10 10 10 10 10 10 10 11 11 11 11 11 11 11 11 11 11 11 11 11 11 11 11 11 11 11 11 11 11 10 10 10 10 10 10
9 9 9 9 9 9 9 9 9 10 10 10 10 10 10 10 10 10 11 11 11 11 11 11 11 11 11 11 11 10 10 11 11 11 11 10 10 10 10 10 10 10 10
9 9 9 9 9 9 9 9 9 9 9 9 9 9 9 10 10 10 10 10 10 10 11 11 11 11 10 10 10 10 10 10 10 10 10 10 10 10 10 10 10 10 9
8 8 8 8 8 8 8 8 8 8 9 9 9 9 9 9 9 9 10 10 10 10 10 10 10 10 10 10 10 10 10 10 10 10 10 10 10 9 9 9 9 9 9
8 8 8 8 8 8 8 8 8 8 8 8 8 8 8 8 9 9 9 9 9 9 9 9 10 10 10 10 10 10 9 9 9 9 9 9 9 9 9 9 9 9 9
7 7 7 7 7 7 7 7 7 7 7 8 8 8 8 8 8 8 9 9 9 9 9 9 9 9 9 9 9 9 9 9 9 9 9 9 9 9 9 9 9 9 9
6 6 6 7 7 7 7 7 7 7 7 7 7 8 8 8 8 7 8 8 8 8 9 9 9 9 9 9 9 9 9 9 9 9 9 9 9 9 8 8 8 8 8
6 6 6 6 6 6 6 6 6 6 7 7 7 7 7 7 8 7 7 8 8 8 8 8 8 8 8 8 8 8 8 8 9 9 8 8 8 8 8 8 8 8 8
5 5 5 5 6 6 6 6 6 6 6 6 7 7 7 7 7 7 7 7 7 7 8 8 8 8 8 8 8 8 8 8 8 8 8 8 8 8 8 8 8 8 8
5 5 5 5 5 5 5 5 5 5 6 6 6 6 6 7 7 7 7 7 7 7 7 7 7 7 7 7 7 7 8 8 8 8 8 8 8 8 8 7 7 7 7
4 4 4 4 4 4 5 5 5 5 5 5 6 6 6 6 6 6 6 6 6 6 6 7 7 7 7 7 7 7 7 7 7 7 7 7 7 7 7 7 7 7 7
3 3 4 4 4 4 4 4 4 4 5 5 5 5 5 5 6 6 6 6 6 6 6 6 6 6 6 6 6 6 7 7 7 7 7 7 7 7 7 7 6 6 6
2 3 3 3 3 3 3 3 4 4 4 4 4 4 5 5 5 5 5 5 5 6 5 5 6 5 6 6 6 6 6 6 6 6 6 6 6 6 6 6 6 6 6
2 2 2 2 2 3 3 3 3 3 3 4 4 4 4 4 5 5 5 5 5 5 5 5 5 5 5 5 5 5 5 5 6 6 6 6 6 6 6 6 6 5 5
1 1 2 2 2 2 2 2 2 3 3 3 3 3 4 4 4 4 4 4 4 5 5 5 5 4 5 5 5 5 5 5 5 5 5 5 5 5 5 5 5 5 5
1 1 1 1 1 2 2 2 2 2 2 2 2 3 3 3 4 4 4 4 4 4 4 4 4 4 4 4 4 4 4 4 5 5 5 5 5 5 5 4 4 4 4
0 0 1 1 1 1 1 1 1 2 2 2 2 2 2 3 3 3 3 3 3 3 3 3 3 3 3 3 3 3 4 4 4 4 4 4 4 4 4 4 4 4 4
-0 -0 0 0 0 0 1 1 1 1 1 1 2 2 2 2 2 3 3 3 3 3 3 3 3 3 3 3 3 3 3 3 3 3 3 3 3 3 3 3 3 3 3
-1 -1 -1 -0 -0 -0 -0 0 1 1 1 1 1 1 2 2 2 2 2 2 2 2 2 2 2 2 2 2 2 2 2 2 2 2 3 3 3 3 3 3 3 3 2
-2 -1 -1 -1 -1 -1 -1 -0 -0 0 0 1 1 1 1 1 1 1 1 1 2 2 2 2 2 2 2 2 2 2 2 2 2 2 2 2 2 2 2 2 2 2 2
-2 -2 -2 -2 -1 -1 -1 -1 -1 -1 -0 0 0 0 1 1 1 1 1 1 1 1 1 1 2 2 2 2 2 1 1 1 1 1 1 1 1 1 2 2 2 1 1
-3 -3 -2 -2 -2 -2 -1 -1 -1 -1 -1 -0 -0 -0 0 0 1 0 1 1 1 1 1 1 1 1 1 1 1 1 1 1 1 1 1 1 1 1 1 1 1 1 1
-4 -3 -3 -3 -2 -2 -2 -2 -2 -2 -1 -1 -1 -1 -0 -0 -0 -0 0 0 0 0 1 1 1 1 1 1 1 1 1 0 0 -0 0 0 0 -0 -0 -0 0 0 -0
Wind_Speed
1 2 2 2 2 2 3 3 3 3 3 3 3 3 2 2 1 1 0 1 2 4 5 5 6 7 7 7 7 8 8 7 6 6 6 6 6 6 7 6 6 5 5
1 1 1 1 1 1 2 3 3 2 2 2 2 2 2 1 1 1 1 1 2 3 4 5 5 6 7 7 7 8 7 7 6 6 6 6 6 6 6 6 5 5 5
1 1 1 0 0 1 2 3 3 3 2 2 2 1 1 1 1 0 0 1 1 2 4 4 5 6 6 7 7 8 8 7 6 5 5 5 5 5 6 6 6 5 5
1 1 0 0 1 2 2 2 1 1 1 1 1 0 1 1 1 1 1 0 1 1 2 3 4 5 6 6 7 7 7 7 7 6 6 6 5 5 6 6 6 5 5
1 1 1 1 1 2 1 2 1 1 1 1 1 0 1 1 1 1 1 1 1 1 1 2 3 3 6 6 6 7 7 7 7 6 6 6 6 6 6 5 6 5 5
1 1 1 1 1 1 1 1 2 1 1 1 1 1 1 1 1 1 0 1 1 1 2 2 1 2 4 5 6 6 7 7 7 7 6 6 6 6 7 6 6 5 5
2 1 1 1 1 2 2 2 2 1 1 1 1 1 2 1 1 1 1 1 1 1 2 2 2 1 1 3 4 6 7 8 7 7 7 7 7 7 7 7 7 6 5
2 2 2 2 2 2 2 3 2 1 1 1 1 1 0 1 1 1 1 1 1 1 1 1 1 1 1 1 2 4 5 6 7 7 7 7 7 8 8 8 7 6 6
3 3 2 2 3 3 4 4 4 3 3 2 1 2 2 3 1 1 1 1 1 1 1 1 1 1 2 1 1 2 3 4 5 6 7 7 8 8 7 7 7 7 6
3 3 3 2 3 3 4 5 4 3 4 3 2 1 1 2 2 1 1 1 1 1 1 1 1 2 2 2 2 2 3 3 4 5 6 6 7 7 7 8 7 7 8
3 3 3 3 3 3 4 4 4 4 4 4 3 2 1 0 1 2 2 2 1 2 2 2 2 2 2 3 2 2 3 3 4 5 5 6 7 6 7 7 7 6 6
3 3 3 3 3 3 4 4 5 6 5 5 3 3 3 2 2 2 3 3 3 2 2 2 2 3 3 3 3 3 3 4 4 5 5 6 5 5 6 6 6 5 5
3 4 4 3 3 4 4 4 4 5 5 5 5 4 3 3 3 2 2 2 2 2 2 2 3 3 3 3 3 3 3 4 4 5 5 5 5 5 6 6 6 6 6
4 4 4 4 4 4 4 4 4 5 4 5 5 4 3 3 3 3 3 3 2 2 2 3 1 3 3 3 3 3 3 4 4 5 5 6 5 5 6 6 6 6 6
4 4 4 3 4 4 4 4 4 4 4 4 4 4 4 3 3 3 3 4 4 4 5 4 3 2 3 3 4 3 3 4 5 6 6 6 6 5 5 6 6 6 7
5 4 3 3 3 3 3 4 4 4 4 4 3 4 4 3 3 3 3 3 3 4 4 3 3 2 2 3 4 3 4 5 6 6 6 6 6 6 5 6 6 6 6
4 4 4 4 3 3 3 4 4 4 5 4 4 4 4 4 3 3 3 3 3 3 4 2 2 1 2 2 2 2 3 3 4 6 6 5 6 6 6 5 5 5 6
5 4 4 4 4 4 4 5 5 5 5 5 5 4 4 3 4 3 3 3 3 3 4 4 2 2 3 3 2 2 2 2 3 4 4 5 5 5 5 5 5 6 6
5 4 4 4 4 5 5 5 5 5 6 6 5 5 4 4 4 3 4 3 3 3 3 4 3 2 2 2 1 1 1 1 2 3 4 4 4 4 4 5 6 6 6
5 5 4 4 4 5 5 5 5 5 5 5 5 5 5 5 5 5 4 4 3 3 3 3 3 2 2 2 2 2 2 1 2 2 2 3 3 4 5 5 6 6 7
6 5 5 5 4 4 5 5 4 4 4 4 4 4 4 5 5 5 4 5 5 4 4 4 4 3 3 2 3 2 3 2 2 1 1 2 2 3 3 5 6 7 7
6 5 4 4 5 4 6 5 4 4 4 4 5 4 4 4 5 6 6 6 6 5 5 5 4 4 4 4 3 3 3 2 2 1 1 2 1 2 3 4 5 7 7
6 6 5 4 5 6 6 5 4 2 3 3 4 4 3 3 4 4 5 5 6 7 7 6 6 6 5 5 4 4 4 3 3 2 1 2 1 2 3 4 5 6 6
6 5 5 5 5 5 6 5 4 2 3 3 4 4 4 4 4 4 4 4 4 4 6 5 6 6 5 6 6 5 4 2 1 1 2 2 1 2 2 2 2 3 3
6 6 5 5 5 6 6 5 4 2 2 3 3 3 4 4 5 5 4 4 3 3 4 5 6 5 6 7 6 3 3 3 2 2 2 2 1 1 1 1 1 1 1
6 6 6 5 5 5 5 5 5 2 2 2 2 3 4 4 5 5 4 5 5 4 3 2 3 3 3 5 7 6 5 4 2 2 2 2 2 1 1 1 1 0 0
Wind_Direction
77 71 65 65 62 70 88 91 90 89 94 92 89 91 84 69 66 71 204 196 192 179 174 174 167 165 159 153 148 143 140 141 143 142 140 142 145 147 140 136 135 132 127
102 93 69 68 66 91 106 108 114 108 108 106 94 85 82 73 58 31 318 269 229 205 190 185 179 176 169 169 162 152 147 146 144 145 149 150 153 159 161 152 140 133 133
121 107 110 88 68 120 112 100 96 95 100 107 97 80 68 65 58 15 292 248 247 238 209 197 191 185 176 176 172 164 161 160 160 160 161 158 158 165 169 163 157 153 147
124 116 140 196 151 131 118 121 127 109 94 107 114 54 60 60 53 59 82 142 163 210 224 207 197 194 187 185 183 179 176 177 178 178 175 172 173 173 175 179 173 169 165
203 168 209 219 159 128 130 153 132 138 136 117 121 60 34 35 30 48 86 102 164 173 189 211 207 206 198 194 193 193 191 189 190 189 188 188 189 191 188 187 185 186 183
261 221 225 211 166 158 171 158 153 135 160 161 90 37 360 355 25 360 52 98 126 166 163 163 171 209 205 202 202 205 204 204 201 196 197 201 205 204 204 201 197 195 198
268 252 251 217 198 193 198 181 157 149 171 154 110 41 355 344 336 323 11 75 78 95 114 133 145 159 197 211 214 219 218 217 212 210 209 209 211 214 215 212 209 209 212
279 257 225 221 213 203 201 195 170 166 203 178 152 131 347 337 334 318 300 209 154 94 85 107 127 157 175 188 220 230 229 229 227 225 221 218 216 220 224 225 220 216 220
287 282 253 228 214 200 206 207 197 189 198 236 212 176 173 210 273 294 268 241 214 165 160 132 148 177 183 192 209 225 230 236 239 236 231 227 226 226 228 229 228 224 225
291 286 275 244 221 214 209 212 209 202 186 205 246 257 213 172 187 242 294 284 261 230 233 198 184 212 204 195 203 212 223 233 246 253 248 240 234 233 235 236 235 234 230
287 282 274 255 238 228 216 214 213 208 200 202 204 214 205 333 225 196 236 256 286 269 249 239 222 215 221 210 213 220 226 237 252 262 261 255 247 244 243 241 238 237 234
275 278 274 257 246 237 220 217 217 216 214 209 207 204 193 189 200 198 217 233 246 266 266 243 225 220 224 221 224 227 232 241 254 260 260 257 252 251 249 248 244 241 243
278 259 275 260 251 245 234 219 216 223 217 209 208 218 212 210 198 198 205 226 247 270 267 252 231 223 221 219 230 238 245 243 251 255 259 259 259 257 256 246 244 242 245
271 266 263 263 258 250 237 220 222 227 221 215 216 218 217 214 204 197 200 200 232 262 250 244 245 222 215 212 228 238 248 245 248 252 259 265 273 270 253 243 245 242 244
294 279 265 258 256 247 235 220 226 226 222 220 217 221 220 217 209 207 203 199 199 230 247 234 226 221 211 217 232 232 238 251 250 251 252 256 262 257 252 244 247 246 245
302 289 271 261 254 249 243 226 226 220 216 224 224 219 222 222 209 205 201 208 212 213 235 225 228 229 213 231 240 229 234 249 248 247 248 253 249 249 251 249 247 251 248
301 287 265 256 247 243 246 237 228 218 213 218 226 216 221 214 208 205 197 198 209 205 228 247 239 235 211 222 249 240 245 246 247 247 246 243 245 246 248 247 249 251 253
306 294 279 260 256 246 238 238 233 223 215 217 217 208 220 213 204 200 195 202 212 210 207 225 233 231 233 220 224 234 254 249 249 246 239 237 241 242 240 245 250 251 253
304 300 290 266 259 252 246 237 229 224 223 217 209 209 216 207 210 205 198 201 210 211 202 205 224 231 237 218 222 259 261 261 254 242 242 237 235 238 247 250 252 254 252
301 295 287 280 269 261 249 242 235 229 223 219 216 215 215 210 212 205 204 202 201 204 197 198 207 219 229 208 189 221 261 250 255 256 245 238 243 256 253 253 254 253 250
305 295 287 290 279 264 250 243 232 230 224 220 219 221 221 218 218 212 210 201 197 204 202 202 212 214 214 196 210 205 232 250 265 217 203 252 259 261 262 259 258 253 248
306 303 295 291 288 273 270 266 250 231 224 218 218 222 225 222 223 227 224 217 210 209 210 209 217 218 223 210 200 200 206 216 254 210 184 256 231 250 268 265 258 252 251
308 307 299 292 287 282 279 273 271 251 224 222 219 215 224 225 220 213 220 225 230 231 227 220 215 219 216 207 197 208 214 219 228 205 174 256 243 258 276 271 262 254 249
305 300 298 291 289 291 289 283 277 257 235 232 231 219 212 220 219 208 206 216 228 238 239 227 218 217 216 204 202 210 210 208 226 229 190 236 253 269 306 294 272 252 236
305 300 298 296 293 292 288 285 288 252 246 248 246 232 217 219 229 216 201 206 227 248 252 239 230 224 220 213 197 178 179 187 234 239 199 200 219 276 302 304 281 218 202
304 304 301 296 290 289 286 287 288 246 244 252 254 248 247 239 231 219 202 198 217 235 223 232 230 219 213 205 204 199 191 193 203 234 206 177 185 175 288 297 332 331 116
Height
1530 1531 1532 1533 1534 1534 1535 1536 1538 1539 1540 1541 1543 1544 1545 1547 1548 1549 1550 1551 1553 1554 1555 1556 1557 1558 1559 1560 1561 1562 1563 1564 1565 1565 1566 1567 1567 1568 1568 1569 1569 1569 1570
1528 1529 1530 1531 1531 1532 1533 1535 1536 1537 1538 1539 1541 1542 1543 1544 1546 1547 1548 1549 1551 1552 1553 1555 1556 1557 1558 1559 1560 1561 1561 1562 1563 1564 1565 1566 1566 1567 1567 1568 1568 1568 1569
1525 1526 1527 1528 1529 1530 1531 1532 1533 1535 1536 1537 1538 1540 1541 1542 1543 1545 1546 1547 1548 1550 1551 1553 1554 1555 1556 1557 1558 1559 1560 1561 1562 1563 1563 1564 1565 1565 1566 1566 1567 1567 1568
1523 1524 1524 1525 1527 1528 1529 1530 1531 1532 1533 1534 1536 1537 1538 1540 1541 1542 1543 1545 1546 1547 1549 1550 1552 1553 1554 1555 1557 1557 1558 1559 1560 1561 1562 1562 1563 1564 1565 1565 1565 1566 1566
1520 1521 1522 1523 1524 1525 1526 1527 1528 1530 1530 1532 1533 1534 1536 1537 1538 1539 1541 1542 1543 1545 1546 1548 1549 1550 1552 1553 1554 1555 1556 1557 1558 1559 1560 1560 1561 1562 1563 1563 1564 1564 1564
1517 1518 1519 1520 1521 1522 1523 1524 1525 1527 1528 1529 1530 1532 1533 1534 1535 1537 1538 1539 1540 1542 1543 1545 1546 1547 1549 1550 1552 1553 1554 1555 1556 1556 1557 1558 1559 1560 1561 1561 1562 1562 1563
1514 1514 1515 1516 1517 1518 1520 1521 1522 1524 1525 1527 1528 1529 1530 1531 1532 1533 1535 1536 1537 1539 1540 1542 1543 1544 1545 1547 1549 1550 1551 1552 1553 1554 1554 1555 1556 1557 1558 1559 1559 1560 1560
1510 1511 1511 1512 1514 1515 1516 1518 1519 1520 1522 1524 1525 1526 1527 1529 1529 1530 1531 1533 1534 1536 1537 1538 1540 1541 1543 1544 1545 1547 1548 1548 1549 1551 1552 1552 1553 1554 1555 1556 1556 1557 1557
1506 1507 1507 1509 1510 1511 1512 1513 1515 1516 1518 1520 1522 1523 1524 1524 1525 1526 1528 1529 1531 1532 1534 1535 1536 1538 1539 1540 1541 1543 1544 1545 1546 1547 1548 1549 1550 1551 1551 1552 1553 1554 1554
1501 1502 1503 1504 1506 1507 1508 1509 1511 1513 1514 1516 1518 1519 1520 1521 1523 1523 1524 1526 1527 1528 1530 1531 1533 1534 1535 1536 1538 1539 1540 1541 1542 1543 1544 1545 1546 1547 1547 1548 1549 1550 1550
1497 1498 1499 1500 1501 1502 1504 1505 1507 1509 1510 1511 1513 1514 1515 1517 1518 1519 1520 1521 1523 1525 1526 1528 1529 1530 1531 1532 1534 1535 1536 1537 1538 1539 1540 1541 1542 1543 1543 1544 1545 1545 1546
1492 1493 1494 1495 1496 1497 1499 1500 1502 1504 1505 1507 1509 1510 1511 1512 1514 1515 1516 1517 1518 1520 1522 1523 1525 1526 1527 1528 1530 1531 1532 1533 1534 1535 1536 1537 1538 1539 1539 1540 1541 1541 1542
1486 1487 1489 1490 1491 1492 1493 1495 1497 1499 1500 1502 1504 1505 1507 1508 1510 1511 1513 1513 1514 1516 1517 1519 1520 1522 1523 1524 1525 1526 1528 1529 1529 1530 1531 1533 1533 1534 1535 1536 1536 1537 1538
1482 1483 1483 1485 1486 1487 1488 1490 1492 1493 1495 1497 1498 1500 1502 1503 1505 1507 1509 1510 1510 1511 1513 1514 1516 1517 1518 1520 1521 1522 1523 1524 1525 1526 1527 1528 1528 1529 1530 1531 1532 1532 1533
1477 1478 1479 1479 1481 1482 1483 1484 1486 1488 1489 1491 1493 1495 1496 1498 1500 1502 1504 1505 1507 1506 1507 1509 1511 1512 1514 1515 1516 1517 1518 1519 1520 1521 1522 1523 1523 1524 1525 1526 1527 1527 1528
1473 1473 1474 1474 1475 1477 1478 1479 1481 1482 1484 1486 1488 1489 1491 1493 1495 1497 1498 1500 1501 1502 1502 1504 1506 1507 1509 1510 1511 1512 1513 1514 1515 1516 1517 1518 1518 1519 1520 1520 1521 1522 1523
1469 1469 1470 1470 1470 1471 1473 1474 1475 1477 1478 1480 1482 1484 1485 1488 1489 1491 1493 1495 1496 1498 1498 1499 1501 1502 1503 1505 1506 1507 1508 1509 1510 1511 1511 1512 1513 1514 1514 1515 1516 1517 1517
1465 1465 1465 1465 1466 1467 1468 1469 1469 1471 1473 1474 1476 1478 1480 1482 1484 1486 1488 1489 1491 1493 1494 1494 1495 1497 1498 1500 1500 1501 1502 1504 1504 1505 1506 1507 1508 1508 1509 1509 1511 1511 1512
1461 1461 1461 1461 1462 1462 1463 1464 1465 1466 1468 1469 1471 1473 1475 1477 1479 1481 1483 1484 1486 1488 1489 1489 1490 1492 1493 1495 1495 1496 1497 1498 1499 1500 1501 1502 1503 1503 1504 1504 1505 1506 1507
1457 1457 1457 1457 1457 1458 1458 1459 1460 1461 1462 1464 1466 1468 1470 1472 1473 1476 1477 1479 1481 1482 1484 1484 1485 1486 1488 1489 1490 1491 1492 1493 1494 1495 1496 1497 1498 1498 1499 1499 1500 1501 1501
1453 1453 1452 1452 1453 1453 1454 1454 1456 1457 1458 1459 1461 1463 1465 1467 1469 1471 1473 1474 1475 1477 1478 1479 1480 1481 1483 1484 1485 1486 1487 1488 1489 1490 1491 1492 1493 1493 1494 1494 1495 1495 1496
1449 1449 1448 1448 1448 1449 1449 1450 1451 1452 1453 1454 1455 1458 1460 1462 1464 1466 1467 1469 1470 1471 1472 1474 1475 1476 1477 1479 1480 1481 1482 1483 1483 1485 1486 1487 1488 1488 1489 1489 1490 1490 1491
1446 1445 1444 1444 1444 1444 1445 1446 1447 1447 1448 1449 1451 1453 1455 1457 1459 1460 1462 1463 1464 1466 1468 1469 1470 1471 1472 1474 1475 1476 1477 1478 1479 1480 1481 1481 1482 1483 1484 1484 1485 1485 1485
1442 1441 1440 1440 1439 1440 1441 1441 1442 1443 1444 1445 1446 1448 1450 1451 1453 1455 1457 1457 1459 1460 1462 1463 1464 1466 1468 1469 1470 1471 1472 1473 1474 1476 1477 1476 1477 1478 1479 1479 1479 1480 1480
1438 1438 1437 1436 1436 1436 1437 1437 1438 1438 1439 1440 1442 1443 1445 1446 1448 1450 1452 1452 1453 1455 1457 1458 1460 1461 1463 1464 1465 1466 1467 1468 1469 1470 1472 1472 1472 1473 1474 1474 1475 1476 1476
1435 1434 1433 1433 1432 1432 1432 1433 1434 1434 1435 1436 1437 1439 1440 1442 1444 1445 1447 1447 1448 1450 1451 1453 1454 1456 1457 1458 1459 1461 1462 1463 1464 1465 1467 1468 1468 1469 1469 1470 1471 1472 1472